Погода в Новоджерелиевской

Россия / Краснодарский край     45°46′28″N   38°40′16″E
темп.,
°C
ветер,
м/с
пор.,
м/с
влажн.,
%
обл.,
%
осадки,
мм/ч
давл.,
гПа
погр.,
м
22 апреля, чт
чт2200:00+8зюз22905 0.0 102118
03:00+7зюз229344 0.0 102233
06:00+7зюз22935 0.0 102216
09:00+13юз1176100 0.0 1023459
12:00+16с116278 0.0 10231278
15:00+18з1250100 0.1 10221801
18:00+13сз4678100 0.3 1022268
21:00+10ссз358124 0.5 102386
23 апреля, пт
пт2300:00+9з11800 0.0 102310
03:00+8зюз22840 0.0 102318
06:00+7ююз11880 0.0 102311
09:00+13ююз23710 0.0 1024464
12:00+16юз34585 0.0 10231384
15:00+18ююз344946 0.0 10212019
18:00+16ссв2266100 0.0 102045
21:00+12ссз3576100 0.0 1020106
24 апреля, сб
сб2400:00+11зсз2371100 0.0 101955
03:00+10ююз397894 0.1 1019240
06:00+9юз34779 0.0 101870
09:00+14зюз57660 0.0 1018700
12:00+16з78575 0.0 10191464
15:00+15з796461 0.2 10191496
18:00+13зсз576850 0.0 1019742
21:00+8зсз3876100 0.0 1021197
25 апреля, вс
вс2500:00+7зсз3976100 0.0 1022226
03:00+7сз2269100 0.0 102244
06:00+5ссз227618 0.0 102227
09:00+9с3357100 0.0 1022779
12:00+11ссз3351100 0.0 10211209
15:00+12ссз2250100 0.0 10201233
18:00+11с2264100 0.0 1019285
21:00+9с2267100 0.0 101946
26 апреля, пн
пн2600:00+8ссв1171100 0.0 101916
03:00+6ссз3473100 0.0 101969
06:00+6сз2276100 0.0 102024
09:00+11зсз3461100 0.0 1021684
12:00+14зсз44475 0.0 10211705
15:00+14сз55545 0.0 10201611
18:00+12сз34660 0.0 1020726
21:00+7сз34800 0.0 102166